Location: İstanbul
(41.0082°N, 28.9784°E)
Time: 21:44:09
(UTC+02:00)

Oscar 11 - Pass Details

Date: 25 October 2021
Orbit: 614 x 623 km, 97.6° (Epoch: 01 December)

Event Time Altitude Azimuth Distance (km) Brightness Sun altitude
Rises 18:49:04 0° 206° (SSW) 2,867 11.0 -8.2°
Reaches altitude 10° 18:51:54 10° 227° (SW) 1,969 10.6 -8.8°
Maximum altitude 18:54:42 17° 268° (W) 1,565 10.5 -9.3°
Drops below altitude 10° 18:57:32 10° 309° (NW) 1,981 10.3 -9.8°
Sets 19:00:25 0° 330° (NNW) 2,894 10.8 -10.3°
